{"data":{"norad_id":60936,"intl_designator":"2024-155N","name":"STARLINK-11241 [DTC]","alt_names":[],"object_type":"PAYLOAD","status":"ACTIVE","operator":null,"country":"US","launch_date":"2024-08-31","launch_site_code":"AFWTR","launch_vehicle":null,"mission":null,"orbit_class":"UNKNOWN","rcs_meters":null,"size_class":null,"mass_kg":null,"dimensions":null,"purposes":["comms"],"wikipedia_slug":null,"has_3d_model":false,"image_url":null,"decayed_at":null,"tle_current":{"epoch":"2026-09-21T21:13:20.820000Z","epoch_age_seconds":68968,"freshness":"FRESH","line1":"1 60936U 24155N   26264.88426875 -.00000672  00000+0 -69066-6 0  9998","line2":"2 60936  53.1594  94.3235 0001043  60.7623 299.3499 15.69707381119217","mean_motion":15.69707381,"eccentricity":0.0001043,"inclination_deg":53.1594,"raan_deg":94.3235,"arg_perigee_deg":60.7623,"mean_anomaly_deg":299.3499,"bstar":-6.9066e-7,"rev_number":11921,"period_min":91.736843276014,"perigee_km":359.03148503485,"apogee_km":360.43700497656,"semimajor_km":6737.8712450057,"source":"CELESTRAK","updated_at":"2026-09-22T09:00:49.291960Z"}}}